DELTA 1 DEB, 7127

Orbit data source: Space-Track

DELTA 1 DEB, 7127 is space debris in SSO originally from a launch on Tue, 06 Nov 1973 UTC launched from the Air Force Western Test Range (AFWTR). Debris objects in space refer to the collection of defunct objects orbiting the Earth. Examples of debris include non-operational satellites, rocket bodies, and fragments generated from explosions, collisions, or faulty payload assembly.

Loading next visibility...
Identifier
7127, 1973-086CR
Orbit
SSO
Country
Flag of USUS
Related business
Manufacturer
Unknown
Mission
Spacecraft
Bus & Motor
Unknown
Mass
Unknown
Launch date (UTC)
1973-11-06 (53 years ago)
Launch vehicle
Unknown
Launch site
Air Force Western Test Range (AFWTR)
Object type
Payload
Rocket body
Debris
Shape & HBR
Unknown shape, 0.2 m
Radar Cross Section
Medium (>0.1 m² and <1 m²)

Expand to show TLE details & history
Last TLE update: 21 hours ago

TLE from 21 hours ago
0 DELTA 1 DEB
1 07127U 73086CR  26263.93886644 -.00000131  00000-0 -10241-2 0  9995
2 07127 101.8862 271.9617 0266381 139.2024 337.2908 12.00864845316612
Epoch: 2026-09-20T22:31Z
TLE epoch observation values (Epoch: 2026-09-20T22:31:58.060Z)
Latitude
62.32319°
Longitude
137.68008°
Altitude
1,490.397 km
Speed
7.211 km/s
True Right ascension
07h 41m 59s
True Declination
62° 11' 41"
Sunlit
Object was in daylight at epoch
Visualization orbit readout
Latitude
Unknown
Longitude
Unknown
Altitude
Unknown
Speed
Unknown
Apparent Right ascension
Unknown
Apparent Declination
Unknown
Sunlit
N/A
Visualization observer readout
Local Sidereal Time
12:53:19
Azimuth
Unknown
Elevation
Unknown
Doppler factor
Unknown
Orbital elements
Apogee altitude
1,889.117 km
Perigee altitude
1,460.098 km
Semi-major axis
8,052.745 km
Eccentricity
0.02664
Inclination
101.8862°
RAAN
271.9617°
Arg. of periapsis
139.2024°
True anomaly
336.07517°
Mean anomaly
337.2908°
Eccentric anomaly
336.68677°
Mean motion
3.0035 °/min
Orbital period
119.86 mins
BSTAR
-0.0010241
Loading maneuver chart data...
Computing Atmospheric mass density...
Loading historical data...
Loading historical data...
Loading historical data...
Loading historical data...
Loading historical data...
Loading historical data...
Loading historical data...

Documentation

Showing up to 5 results
|